Theta_e
320 320 320 321 321 321 320 316 313 311 311 312 314 316 316 317 317 317 316 314 317 317 321 323 326 319 318 317 322 317 320 321 321 324 324 323 323 323 324 322 322 323 324 324 325 327 324 326 327 328 328 328 334 337
319 319 319 319 319 319 317 313 311 311 311 312 315 316 316 317 317 317 316 314 313 315 318 322 323 322 323 321 317 318 320 320 320 323 321 322 323 319 323 325 319 323 321 323 324 324 321 325 327 324 327 331 332 334
316 315 314 315 317 317 314 313 311 311 311 312 314 315 315 317 316 316 316 314 315 316 319 318 321 321 316 317 316 320 317 319 319 319 320 321 326 320 324 323 323 322 318 325 326 323 324 325 323 325 326 327 330 334
315 315 314 314 315 316 313 311 311 311 311 312 314 315 315 317 316 316 316 316 315 317 322 323 322 322 317 317 319 318 319 319 320 318 317 320 321 316 321 321 323 321 321 325 326 322 321 324 324 324 326 325 328 331
314 315 315 314 313 315 314 311 311 311 311 313 314 314 315 316 315 315 315 317 313 317 321 324 324 319 317 318 320 320 318 320 319 318 319 320 315 319 315 316 320 318 324 323 322 324 325 323 322 323 324 325 328 331
311 313 313 314 314 315 314 310 310 310 311 313 314 314 316 315 314 313 316 317 314 316 315 326 322 319 317 317 318 320 321 321 319 319 317 314 316 320 321 323 321 318 319 319 322 317 320 319 319 320 322 324 329 331
309 310 310 313 313 312 310 309 310 310 312 313 313 315 315 315 314 314 312 315 315 313 317 324 324 317 317 317 317 318 318 318 318 317 319 322 320 319 322 325 323 317 318 318 318 318 321 320 321 320 321 322 328 327
309 309 312 312 311 310 308 309 310 311 312 313 313 315 315 314 312 315 314 313 314 313 318 325 321 317 316 318 318 317 317 317 316 316 316 320 318 318 326 322 320 318 317 318 318 320 320 319 320 320 320 321 322 328
309 310 312 310 309 308 308 310 310 312 313 311 313 313 310 311 313 313 314 317 311 317 322 321 322 322 317 317 318 317 316 319 315 318 317 320 322 329 325 323 319 318 319 321 320 319 319 319 319 320 320 322 327 326
311 310 309 308 308 308 309 310 311 313 312 310 308 308 309 309 312 316 316 316 317 317 317 324 320 322 319 319 320 321 317 322 325 322 314 320 322 319 318 319 319 320 318 321 322 322 322 321 320 320 321 322 327 326
308 308 307 307 307 308 309 310 311 312 310 314 316 318 319 318 317 317 315 317 317 318 320 323 322 323 318 322 323 320 323 321 324 323 322 323 323 321 319 318 318 318 318 318 319 319 320 320 320 320 321 321 324 324
307 307 307 307 307 308 310 310 311 311 313 314 317 318 317 318 317 316 318 315 316 318 316 322 324 320 319 319 323 320 324 320 325 318 323 326 324 320 319 319 318 318 318 318 319 320 320 320 320 320 321 322 322 322
306 307 307 307 308 309 310 310 311 311 314 317 317 317 317 316 318 319 318 319 317 317 316 318 323 322 320 320 322 325 325 324 319 323 327 325 323 320 320 320 319 318 318 318 320 321 321 321 320 321 322 322 321 321
307 308 308 308 309 309 309 310 312 311 313 316 315 313 316 317 317 319 317 318 317 316 318 316 319 321 320 323 323 324 324 321 324 326 325 325 321 320 320 320 318 318 318 319 320 320 321 321 320 320 322 322 322 321
308 309 309 309 309 309 309 310 312 311 312 314 315 316 317 316 316 316 316 316 317 317 319 316 317 320 320 323 323 323 322 324 325 326 324 320 320 320 320 320 319 319 318 318 319 320 319 319 319 320 320 320 321 321
309 309 310 310 310 310 310 311 312 310 312 314 315 316 316 316 317 316 317 317 318 318 319 319 321 321 322 321 323 324 322 324 323 322 320 320 320 320 320 321 320 319 318 318 317 318 317 317 318 319 320 320 321 321
309 309 310 310 310 311 311 311 311 310 311 313 314 314 314 314 316 316 316 317 317 318 324 322 323 323 322 322 322 322 323 323 321 321 319 319 321 322 320 321 319 319 318 317 318 317 317 318 319 319 320 320 320 317
308 308 309 310 310 311 311 310 311 311 312 312 312 312 313 314 315 315 316 316 317 318 320 322 321 323 322 324 323 322 323 322 321 321 321 320 322 323 321 321 318 318 318 319 318 317 317 317 317 317 318 318 317 316
307 308 308 310 310 311 311 311 311 312 313 313 312 311 311 312 312 313 314 315 315 317 317 320 322 322 322 323 322 322 320 319 319 319 319 322 322 321 321 321 319 319 319 319 319 318 318 317 317 317 317 316 316 315
307 307 308 310 310 310 311 311 310 311 311 312 311 311 311 312 312 312 312 313 313 314 318 321 322 322 320 318 318 319 319 319 320 318 321 323 323 322 321 320 320 319 319 319 319 319 318 317 317 316 316 316 316 315
307 309 309 309 310 309 310 311 312 311 311 312 313 313 313 312 312 313 312 312 313 314 316 317 318 316 317 317 317 317 320 320 319 320 322 323 321 319 319 318 319 319 320 320 320 319 318 318 317 316 315 316 315 315
307 308 309 308 308 309 311 310 310 311 312 313 313 314 316 316 316 315 314 314 314 314 315 315 316 317 317 316 317 317 320 321 320 320 323 322 321 320 321 321 322 323 322 322 321 321 322 323 321 319 316 315 315 315
307 307 308 308 309 310 310 311 312 313 315 316 318 319 319 319 317 314 316 316 316 315 315 315 315 314 316 316 316 316 317 318 320 320 322 323 323 322 322 322 322 322 323 322 323 321 319 318 318 318 318 316 315 315
308 309 310 310 310 310 311 312 312 313 315 317 319 320 321 320 315 318 319 319 317 318 319 319 318 316 315 316 316 316 316 318 320 320 319 320 321 321 322 323 323 323 323 322 319 317 317 317 317 317 315 315 315 315
309 309 310 310 312 311 314 315 316 317 318 319 319 320 321 319 323 322 322 320 321 319 321 321 320 318 316 316 316 317 317 318 318 318 319 319 321 321 321 322 323 322 321 319 317 316 316 314 313 314 314 313 312 310
307 310 310 313 314 315 316 319 319 319 319 320 320 320 318 321 321 321 322 320 320 320 320 321 320 319 318 318 318 320 321 320 320 320 320 321 321 321 322 322 321 320 321 318 316 314 314 313 311 311 311 310 310 310
309 312 312 311 312 314 315 317 317 318 319 321 321 322 321 318 319 320 319 318 321 321 321 321 320 321 321 321 321 321 321 321 321 322 321 321 321 321 321 321 321 321 320 316 315 311 310 310 310 310 310 309 309 308
311 312 314 315 314 314 316 317 319 320 320 316 320 321 323 321 322 320 321 321 321 321 321 321 320 320 321 321 321 321 321 321 321 321 320 320 320 321 321 321 321 318 315 314 314 310 310 313 313 313 312 310 310 309
311 312 313 314 314 314 317 318 320 320 319 320 321 320 320 320 321 321 319 320 321 321 321 321 321 320 319 319 318 316 315 316 318 320 320 319 318 318 318 319 317 314 312 311 310 310 311 311 311 313 314 313 313 310
311 311 313 314 315 318 318 318 318 318 318 320 319 320 320 319 319 320 321 320 320 320 321 321 320 318 317 316 316 316 316 316 317 318 318 318 316 314 312 312 311 311 311 311 312 313 315 314 314 313 313 313 312 310
311 311 313 315 317 316 316 319 320 320 320 320 320 319 319 319 321 321 320 320 319 318 319 320 320 319 317 318 318 318 318 317 316 316 317 316 315 314 313 313 313 314 315 315 315 315 314 313 313 313 313 313 312 311
311 312 316 316 317 319 319 319 319 319 319 319 318 318 318 318 319 319 319 318 317 316 316 317 318 317 317 316 315 314 314 315 314 316 317 316 316 315 314 313 313 313 313 313 314 313 314 314 313 312 312 312 312 311
312 313 316 317 318 320 319 320 320 319 318 319 318 319 318 319 319 317 318 318 318 318 318 317 317 316 315 315 313 313 313 313 313 313 313 315 314 314 314 314 314 314 315 315 314 314 314 313 312 312 312 312 311 311
Wind_Speed
19 19 20 22 20 17 16 15 14 13 13 13 13 13 13 13 12 9 6 8 10 5 13 6 3 1 1 4 4 6 4 1 2 2 1 2 2 2 2 1 0 1 1 1 2 1 3 1 2 3 2 3 9 12
14 13 10 12 14 13 12 12 13 13 12 12 13 14 14 13 12 11 7 9 10 13 9 7 12 14 12 11 6 12 1 4 4 4 2 3 2 2 2 3 1 2 1 1 4 1 1 2 2 2 3 2 6 7
11 9 10 10 11 10 11 11 13 12 13 13 14 14 15 14 12 12 10 10 7 7 16 16 8 4 5 12 10 4 5 6 5 5 5 2 2 3 4 3 3 4 3 2 3 3 5 4 3 4 3 4 5 6
11 12 10 10 10 11 11 12 12 13 13 14 14 15 15 14 13 14 13 13 13 5 4 3 5 7 6 7 5 5 5 9 8 7 3 2 2 4 2 1 4 2 9 4 3 5 4 10 10 7 6 3 4 7
14 14 13 12 13 13 13 12 12 13 14 14 15 15 16 12 14 12 15 16 18 6 4 7 6 8 7 6 6 4 5 8 8 4 2 2 4 3 1 1 4 9 6 6 5 8 5 4 11 12 10 6 4 11
15 14 14 13 13 14 13 11 12 13 14 14 15 15 13 9 12 6 4 13 20 16 4 3 2 6 9 7 6 7 7 7 5 4 3 2 4 3 4 3 6 16 15 11 3 7 11 7 9 12 11 5 6 12
16 14 15 13 13 12 12 11 11 12 13 14 13 12 12 11 11 11 3 2 22 16 4 5 2 5 13 13 8 6 6 4 3 4 2 3 3 4 2 4 4 15 18 14 10 8 8 10 6 11 11 10 9 11
16 14 13 12 12 11 11 10 10 11 12 12 12 11 8 8 8 12 5 9 22 15 4 3 2 3 14 5 4 7 5 5 2 3 4 3 4 3 4 8 14 12 15 14 16 12 7 9 10 12 11 11 13 13
15 14 13 12 11 10 9 9 9 9 9 9 8 4 3 0 3 1 3 5 23 5 3 3 3 3 13 5 5 5 5 2 3 3 4 6 3 4 7 8 11 16 17 17 17 12 11 9 12 13 14 12 12 17
13 12 11 10 10 9 9 7 7 7 6 3 2 2 1 2 5 6 6 8 6 6 5 4 3 3 9 5 3 5 2 2 3 3 6 3 4 15 17 12 9 13 17 17 21 14 13 12 14 14 14 14 16 18
10 10 10 9 9 8 8 6 5 3 3 3 2 2 2 2 5 5 5 6 6 4 7 8 10 3 6 4 3 1 3 3 3 4 4 3 3 7 18 26 15 13 16 18 19 18 18 10 13 14 15 15 16 16
9 9 9 9 8 8 7 5 4 4 4 3 2 3 4 4 3 3 3 2 4 4 5 6 12 6 5 4 4 3 2 0 4 9 4 2 4 9 10 10 25 22 18 16 17 18 14 12 10 12 18 16 17 17
7 7 8 8 8 8 7 6 4 5 5 2 1 1 1 3 2 5 6 3 3 2 3 5 4 11 5 4 4 3 2 1 3 4 3 4 6 8 6 6 17 26 21 17 17 19 18 14 11 10 19 21 18 17
5 5 6 7 7 7 7 7 5 6 4 3 3 1 3 4 4 3 1 1 2 3 2 3 3 6 5 5 4 5 4 4 4 4 6 3 10 13 8 9 17 27 23 18 18 17 18 16 14 14 14 17 18 17
5 5 6 6 7 7 7 6 5 9 5 3 3 4 6 8 4 3 7 6 5 6 4 2 3 4 2 3 3 4 4 6 7 4 3 9 12 12 11 12 18 25 23 18 17 16 16 15 14 15 16 16 16 14
6 5 6 6 7 6 6 6 7 8 3 4 5 4 5 4 7 6 6 4 2 5 4 3 2 3 4 2 5 8 8 6 3 3 9 13 13 10 12 12 20 25 22 18 16 14 14 13 13 15 17 16 15 14
6 5 5 6 5 5 6 7 6 5 5 4 5 7 7 5 6 4 2 2 7 3 3 2 6 3 2 3 4 3 3 2 5 7 9 6 7 5 10 12 21 22 19 18 14 14 14 14 13 15 17 18 17 15
6 7 7 6 5 6 7 6 3 4 5 7 5 6 11 10 10 11 8 5 4 4 3 2 2 4 4 3 2 2 2 5 7 10 12 10 10 5 9 17 23 23 20 17 14 15 16 16 17 18 19 21 21 19
6 6 6 4 6 5 4 4 4 3 7 5 8 14 12 9 15 15 13 7 10 7 7 4 4 4 4 5 7 6 9 14 15 19 25 19 15 14 10 19 25 25 22 19 17 15 14 15 17 19 22 23 24 23
6 5 6 6 7 3 2 3 4 4 4 3 7 9 8 11 12 14 17 15 11 3 6 4 3 4 5 6 7 9 11 11 11 13 21 20 16 14 15 24 28 26 23 19 17 15 16 18 20 23 24 26 25 24
6 8 6 6 4 4 3 3 5 5 5 5 9 8 7 9 9 11 12 12 10 7 7 14 15 14 10 9 12 12 12 9 10 7 17 12 8 11 18 22 23 19 15 12 13 15 16 16 18 21 23 24 23 22
6 9 6 5 3 3 4 6 5 5 4 8 7 7 6 4 6 7 8 10 9 19 20 20 23 24 25 25 20 13 9 9 3 3 8 3 9 15 19 20 19 14 11 12 12 16 15 15 15 15 17 18 20 25
7 6 4 4 3 3 4 4 4 4 3 3 3 3 3 4 3 10 5 7 9 17 22 26 31 29 27 26 22 22 19 16 15 9 3 3 7 11 14 16 16 13 13 13 14 13 12 12 12 13 15 18 21 26
4 4 4 4 6 3 3 4 5 4 4 3 3 3 2 3 10 3 3 4 6 9 14 18 18 20 18 20 25 22 19 16 13 10 10 10 12 11 13 16 14 12 13 14 15 14 13 13 14 16 19 23 23 20
3 4 3 4 6 4 4 3 4 3 3 3 2 2 1 3 3 2 2 1 6 7 6 8 12 13 18 18 17 17 17 21 24 22 15 14 15 15 13 15 16 16 15 15 17 16 16 17 16 17 18 18 20 20
2 4 5 3 4 4 3 3 0 1 3 3 3 1 0 1 3 3 2 10 11 9 5 2 2 6 10 12 14 13 5 6 10 11 11 12 11 12 12 16 21 22 17 14 17 19 20 19 18 17 16 14 14 14
3 5 6 7 4 3 4 6 6 3 3 3 4 2 3 1 3 2 3 13 10 8 7 7 7 5 2 3 5 9 11 11 9 8 7 7 7 8 5 3 17 15 16 19 21 22 21 18 15 12 11 12 11 13
4 3 4 1 4 6 3 3 2 1 2 4 3 2 2 2 2 5 3 4 3 4 3 1 3 7 11 11 9 9 11 11 11 12 12 11 10 9 10 12 15 16 17 21 25 22 17 13 10 8 9 12 12 12
4 4 3 6 5 4 5 3 1 1 4 2 2 1 2 1 6 4 5 8 9 8 8 10 13 13 11 13 15 16 15 11 12 14 15 14 13 13 13 16 17 17 19 21 19 17 14 11 12 14 13 13 12 16
4 5 3 3 2 1 2 3 5 8 9 1 3 1 2 5 7 9 11 16 15 15 14 15 16 16 17 17 17 15 13 13 13 13 13 12 13 15 16 18 18 17 16 14 12 10 10 10 10 9 7 11 11 11
4 2 2 2 4 5 8 8 8 11 12 2 4 4 7 10 15 15 16 15 14 15 16 16 15 14 12 11 11 10 10 11 12 14 12 12 13 12 11 11 11 9 7 7 7 6 6 4 2 4 5 6 7 9
2 1 3 1 4 4 4 2 2 2 1 3 6 7 11 10 6 5 8 11 13 14 13 12 10 9 9 11 10 9 7 5 4 6 7 10 12 12 12 11 10 8 7 6 6 6 5 4 5 5 5 5 6 8
2 3 2 4 2 1 1 1 4 3 6 5 7 8 6 5 4 3 4 6 7 8 8 8 9 10 12 13 10 11 13 12 10 11 11 10 8 6 4 4 6 7 5 4 3 4 5 5 5 5 6 7 7 10
Wind_Direction
278 278 278 280 268 264 274 283 291 301 310 318 319 324 326 323 312 305 251 229 219 257 269 270 254 324 196 180 163 155 155 158 88 100 169 142 205 135 184 269 266 64 147 125 139 200 209 158 189 220 56 124 145 151
277 277 288 288 271 262 271 282 292 301 311 316 315 318 320 317 307 294 263 235 237 238 262 256 262 289 255 237 237 164 258 154 154 110 182 135 177 177 176 200 132 209 258 332 221 33 131 223 255 195 153 127 156 163
270 284 292 287 285 284 280 282 288 302 310 312 312 314 317 312 298 283 256 229 233 271 284 270 264 233 219 197 192 177 193 176 165 135 140 115 210 171 186 216 165 178 168 207 215 178 228 218 198 185 172 134 157 151
268 268 274 290 292 288 280 277 287 300 307 309 309 310 313 306 299 275 249 220 215 264 273 253 217 232 200 156 172 201 199 173 153 146 121 146 213 201 211 334 220 106 160 169 241 240 239 235 213 197 205 224 206 170
267 268 273 278 286 285 278 277 290 300 305 306 307 308 310 303 308 269 243 223 208 211 301 293 297 196 200 169 154 190 188 173 157 135 156 165 130 165 106 247 225 188 170 190 224 202 195 177 207 198 206 221 201 170
269 264 268 270 272 268 266 276 289 299 303 304 307 308 303 300 299 259 253 223 208 211 303 297 284 197 184 170 162 165 160 166 157 144 138 160 183 193 199 234 238 206 207 206 184 196 195 177 171 190 192 199 201 162
270 271 269 270 273 274 269 275 288 296 301 303 307 305 296 286 269 209 202 228 190 187 237 277 258 184 170 161 156 154 169 168 148 145 152 152 183 201 219 232 242 219 212 203 200 171 173 177 176 179 186 194 163 159
269 270 268 267 267 265 264 273 285 294 299 300 301 302 299 277 257 220 262 253 185 175 222 257 245 174 176 165 135 157 155 156 154 158 146 164 158 226 248 236 230 217 205 208 201 193 199 196 183 181 184 192 193 178
269 267 264 264 260 255 257 267 282 297 293 293 300 295 306 241 142 60 232 148 163 193 253 230 215 192 172 152 137 147 161 153 183 203 185 164 170 222 235 234 224 215 203 201 187 179 164 168 181 190 196 188 188 180
257 260 261 258 250 245 251 262 284 297 281 273 247 257 265 137 141 143 128 172 209 223 230 253 229 197 174 161 136 130 139 145 192 167 137 211 248 245 243 248 247 225 203 193 170 171 168 168 178 184 186 187 174 175
253 255 253 246 237 232 240 251 276 272 214 202 221 226 149 197 189 191 191 201 191 228 211 228 207 167 190 184 140 98 154 159 215 166 200 204 257 245 245 232 221 199 202 206 214 208 194 193 189 189 187 185 189 185
254 253 244 232 223 221 227 236 252 212 196 208 251 273 159 193 210 216 205 186 208 222 196 204 210 187 140 192 119 138 114 120 240 145 196 229 246 257 249 241 211 196 191 197 204 200 196 202 202 200 194 189 183 184
254 239 219 209 213 214 217 222 231 205 201 212 187 207 207 181 241 216 201 206 225 220 216 197 173 177 159 155 96 128 95 259 110 199 223 226 244 268 263 243 201 197 194 194 197 201 205 207 205 199 193 191 189 189
221 208 206 206 206 205 211 217 220 189 177 188 165 1 234 218 243 220 242 1 308 267 321 218 182 185 176 163 149 147 162 104 278 223 221 222 244 275 260 220 192 191 193 194 198 201 203 210 207 199 193 198 200 204
202 200 203 202 202 203 210 212 204 183 185 196 179 210 215 238 254 266 279 289 284 265 276 179 178 183 152 155 197 112 171 195 199 237 212 243 254 257 244 212 197 192 193 191 191 192 198 204 210 209 204 200 206 204
193 197 202 197 198 202 204 198 187 175 220 217 222 238 232 256 254 244 253 262 299 308 219 210 161 180 209 212 180 202 213 205 217 206 271 265 256 248 223 219 197 191 191 186 187 194 197 203 205 207 201 192 185 182
182 176 178 180 185 189 178 160 163 199 219 226 236 232 244 276 261 239 253 263 331 304 214 210 191 174 118 227 227 211 236 152 329 318 297 281 290 266 212 198 187 183 183 184 187 186 184 184 186 185 180 176 174 177
189 184 183 177 171 168 175 179 202 226 244 238 234 235 230 234 248 266 255 272 329 356 298 266 216 179 218 224 260 192 259 303 332 336 335 294 285 258 209 198 189 186 184 187 189 185 184 187 187 182 186 185 188 191
178 180 174 173 176 170 176 200 223 256 244 260 254 253 250 253 254 251 258 236 271 271 309 262 229 212 214 211 242 257 294 312 323 319 316 308 285 270 253 212 194 186 184 185 183 185 189 192 198 200 200 199 200 200
169 157 167 187 180 175 205 218 215 257 260 252 255 251 245 249 254 246 244 243 247 246 248 226 225 201 207 245 282 279 275 282 305 310 316 298 284 266 239 198 188 183 183 186 193 202 208 211 215 215 216 212 211 209
175 166 181 180 190 225 247 225 240 239 257 252 270 259 258 251 240 227 225 212 197 213 225 233 244 249 242 271 291 297 287 245 288 303 321 300 257 196 182 177 177 179 182 197 212 217 218 220 228 228 226 222 219 215
174 175 176 184 221 225 258 232 242 282 266 259 273 236 244 222 218 208 186 198 234 232 231 235 239 244 247 255 269 281 292 251 227 269 289 223 167 165 163 163 170 181 203 216 219 227 226 230 228 221 216 214 208 201
146 159 176 195 214 230 258 237 245 227 245 245 237 225 215 218 197 158 197 218 230 246 246 246 248 254 250 252 259 267 260 257 245 241 223 200 218 207 204 208 205 237 229 205 201 203 211 210 205 201 197 192 185 178
147 174 211 213 203 257 239 238 232 248 251 246 240 260 171 149 164 226 247 228 239 252 260 264 256 254 249 242 243 251 261 244 220 239 263 264 259 249 241 232 236 219 200 196 189 185 180 180 179 174 169 166 175 183
188 220 219 253 210 220 229 232 222 230 256 228 253 261 152 173 216 237 276 266 299 312 298 265 241 223 226 236 247 250 252 259 258 258 263 254 248 250 245 234 209 184 180 186 184 185 180 170 167 168 170 174 176 179
219 209 206 223 206 220 230 263 179 304 284 260 237 0 65 258 358 317 335 353 340 339 339 21 92 201 228 243 255 267 215 195 205 222 233 235 232 233 229 189 182 179 186 192 193 173 169 168 168 172 177 182 187 192
241 225 224 234 249 274 279 257 252 250 256 331 350 350 65 28 259 270 33 357 355 37 66 93 87 64 107 112 151 159 164 169 182 200 190 171 167 166 169 202 196 178 195 184 182 173 167 167 171 181 189 197 196 200
257 267 239 176 226 226 260 273 254 235 122 206 272 330 130 241 353 14 14 345 121 111 89 212 122 90 128 109 105 111 118 119 119 126 130 135 137 137 131 131 154 159 175 175 173 174 173 174 180 194 208 214 213 214
248 242 243 260 241 225 220 249 298 64 340 249 159 295 239 301 356 19 57 77 92 77 81 99 123 122 107 115 111 105 93 96 113 117 114 114 117 122 130 139 143 148 152 158 168 182 200 225 250 259 249 232 226 218
255 211 245 257 246 241 203 247 272 303 297 283 186 255 61 59 61 85 94 109 95 94 92 98 113 120 116 116 113 109 102 100 101 105 110 114 120 121 126 132 137 143 152 169 192 208 229 232 232 236 228 209 214 213
271 261 248 316 339 320 309 357 81 117 128 122 14 74 87 87 84 96 102 108 101 96 99 106 112 115 109 112 118 113 105 105 109 101 95 108 114 121 135 149 160 173 184 199 211 204 188 191 202 196 210 213 208 205
228 229 60 358 280 345 292 72 128 132 86 45 43 100 106 99 83 81 103 98 100 102 103 104 101 103 97 102 94 91 103 111 110 119 129 134 137 135 135 136 137 134 133 137 156 169 185 204 215 217 215 221 226 212
166 138 190 304 278 262 323 106 86 94 55 50 42 64 77 70 66 69 110 111 106 102 102 112 105 97 101 112 93 89 92 89 93 100 106 122 130 142 165 194 208 216 210 200 210 222 217 210 206 217 232 235 238 220